Location: Im Fang
(46.6019°N, 7.2397°E)
Time: 08:30:34
(UTC+00:00)

NOSS 2-1 (E) - Pass Details

Date: 08 December 2019
Orbit: 456 x 1748 km, 63.3° (Epoch: 16 January)

Event Time Altitude Azimuth Distance (km) Brightness Sun altitude
Exits shadow 04:55:08 32° 319° (NW) 1,472 5.0 -20.9°
Maximum altitude 04:58:03 87° 232° (SW) 1,001 4.5 -20.4°
Drops below altitude 10° 05:05:50 10° 144° (SE) 3,277 7.9 -19.1°
Sets 05:09:06 0° 145° (SE) 4,441 8.7 -18.5°
